APRIZESAT 9 (40018 NORAD) Tracking and Keplerian Element Data

This shows tracking and keplerian element data for the satellite.

Feedback or suggestion? Click here.




ElementValue
Catalog40018
NameAPRIZESAT 9
Epoch Orbit21848
Epoch Day198.87891456
Epoch Year2018
RAAN64.5633
Inclination97.7879
Eccentricity0.0072702
Argument of Perigee123.4387
Mean Anonmoly237.38
Mean Motion14.69881403
Decay Rate-5E-08
L11 40018U 14033J 18198.87891456 -.00000005 00000-0 71310-5 0 9992
L22 40018 97.7879 64.5633 0072702 123.4387 237.3800 14.69881403218485

Live tracking and technical data element details for APRIZESAT 9 (NORAD 40018). APRIZESAT 9 can be tracked NOW for your location showing map with azimuth and elevation plus other details from your city location.

Track the satellite on the map from your city or location and see movement details for azimuth, elevation, latitude, longitude, range, height, and movement on the map or in text.







IsCatalogInMostPopularTable: catalog: 40018, numindb: 58
Update: records affected: 1



GetName: 40018 APRIZESAT 9

Hit Count: updated at: Wed, 18 Jul 2018 20:31:57 GMT